Regional Weather Roundup
Issued by NWS

Home | Current Version | Previous Version | Text Only | Print | Product List | Glossary Off
Versions: 1 2 3 4 5 6 7 8 9 10 11 12 13 14 15 16 17 18 19 20 21 22 23 24 25 26 27 28 29 30 31 32 33 34 35 36 37 38 39 40 41 42 43 44 45 46 47 48 49 50

000
ASUS43 KMPX 171610
RWRMN
WEATHER ROUNDUP FOR MINNESOTA
NATIONAL WEATHER SERVICE TWIN CITIES/CHANHASSEN MN
1000 AM CST TUE JAN 17 2017


NOTE: "FAIR" INDICATES FEW OR NO CLOUDS BELOW 12,000 FEET WITH NO
SIGNIFICANT WEATHER AND/OR OBSTRUCTIONS TO VISIBILITY. N/A MEANS
CURRENT SKY AND/OR WEATHER CONDITIONS ARE NOT AVAILABLE.

MNZ060>063-068>070-171700-
   Twin Cities Metro

CITY           SKY/WX    TMP DP  RH WIND       PRES   REMARKS
TWIN CITIES    CLOUDY    30  24  78 N7        29.98S WCI  23
ST PAUL        CLOUDY    31  27  85 NW8       29.99R WCI  23
CRYSTAL        CLOUDY    28  21  75 N8        29.98R WCI  20
BLAINE         CLOUDY    28  23  80 NW9       29.98R WCI  20
LAKEVILLE      CLOUDY    30  30 100 NW10      29.96R FOG     WCI  21
EDEN PRAIRIE   CLOUDY    31  24  75 N9        29.97R WCI  23
SOUTH ST PAUL  CLOUDY    32  28  84 NW8       29.97S WCI  25
LAKE ELMO      CLOUDY    32  28  86 N6        29.98R WCI  26
$$
MNZ001>005-007-008-013>017-022>024-027-028-171700-
   Northwest Minnesota

CITY           SKY/WX    TMP DP  RH WIND       PRES   REMARKS
BEMIDJI        CLOUDY     4   1  87 SE3       29.91F
HALLOCK        CLOUDY     5   1  85 S10       29.89S WCI -10
ROSEAU         CLOUDY     7   3  85 S7        29.89F WCI  -5
WARROAD        CLOUDY     9   3  78 S6        29.88F WCI  -1
THIEF RVR FALL FLURRIES   8   5  87 S10       29.93S WCI  -6
CROOKSTON      CLOUDY     7   3  85 S8        29.95S WCI  -6
FOSSTON        CLOUDY    10   7  85 SW6       29.94R WCI   1
DETROIT LAKES  CLOUDY     9   5  85 S5        29.94F WCI   0
MOORHEAD       MIX PCPN   3   0  85 SE5       29.99S WCI  -6
PARK RAPIDS    CLOUDY     2  -2  83 CALM      29.93F FOG
MAHNOMEN       FAIR       8   5  88 SW7       29.94R WCI  -4
$$
MNZ006-009>011-018-025>026-171700-
   North Central Minnesota

CITY           SKY/WX    TMP DP  RH WIND       PRES   REMARKS
BAUDETTE       CLOUDY     6   5  95 SW3       29.89S
FLAG ISLAND    CLOUDY     0  -4  85 S7        29.88F WCI -13
INTL FALLS     CLOUDY     7   4  87 CALM      29.91F
WASKISH        CLOUDY    12   9  85 CALM      29.91F
BIG FORK       SUNNY      9   7  92 CALM      29.91F
LONGVILLE      CLOUDY     9   7  92 CALM      29.94F FOG
GRAND RAPIDS   CLOUDY    11   8  88 CALM      29.96S FOG
CRANE LAKE     CLOUDY     3   1  92 CALM      29.95S
ORR            CLOUDY    10   7  85 CALM      29.89F
COOK           CLOUDY     7   3  85 CALM      29.93S FOG
WALKER         FAIR       8   5  89 CALM      29.93S
$$
MNZ012-019>021-037-171700-
   Northeast Minnesota

CITY           SKY/WX    TMP DP  RH WIND       PRES   REMARKS
DULUTH         FOG       28  25  88 CALM      29.93F VSB 1/8
ELY            CLOUDY     3   1  92 CALM      29.92F
HIBBING        FOG        6   5  95 CALM      29.94S VSB 1
EVELETH        LGT SNOW  10   7  87 CALM      29.95S
DULUTH HARBOR  CLOUDY    27  23  86 CALM      29.99R FOG
TWO HARBORS    HAZE      28  25  86 CALM      29.94S VSB 1/4
SILVER BAY     CLOUDY    28  28 100 CALM      29.94S FOG
GRAND MARAIS     N/A     30  25  81 CALM      29.97F
G MARAIS ARPRT CLOUDY    19  18  93 CALM      29.91F FOG
$$
MNZ029>031-032-039>041-046>048-054>057-064-171700-
   West Central Minnesota

CITY           SKY/WX    TMP DP  RH WIND       PRES   REMARKS
FERGUS FALLS   CLOUDY     7   1  78 SE5       30.03S WCI  -2
WHEATON        CLOUDY    16  12  86 CALM      30.02R
MORRIS         CLOUDY    10   7  85 CALM      29.98F
ALEXANDRIA     CLOUDY    11  11 100 W3        29.97S
ELBOW LAKE     LGT SNOW   6   4  90 CALM      29.99S
WADENA         LGT SNOW   3   0  85 CALM      29.95F
GLENWOOD       CLOUDY    14  10  85 W6        29.98S WCI   5
APPLETON       CLOUDY     9   5  85 CALM      30.01F
ORTONVILLE     CLOUDY     9   7  92 CALM      30.00S
MADISON        CLOUDY    10   7  85 S3        30.02S
WILLMAR        CLOUDY    19  16  86 CALM      30.01R
$$
MNZ033>034-036-042>043-049>051-058-059-171700-
   Central Minnesota

CITY           SKY/WX    TMP DP  RH WIND       PRES   REMARKS
ST CLOUD       FOG       27  27 100 NW5       29.98S VSB 1/4 WCI  22
SAUK CENTRE    FAIR      15  12  85 CALM      29.98F
PAYNESVILLE    FOG       27  27 100 NW3       29.99S VSB 1/4
AITKIN         CLOUDY    12   7  79 CALM      29.94F HAZE
PINE RIVER     CLOUDY     3   1  92 CALM      29.99R FOG
BRAINERD       CLOUDY    11  10  96 CALM      29.96S FOG
STAPLES        CLOUDY     3   0  85 CALM      29.97R FOG
LONG PRAIRIE   FAIR      14  10  85 CALM      29.97S FOG
LITTLE FALLS   CLOUDY    21  19  93 CALM      29.98S FOG
LITCHFIELD     FOG       30  30 100 NW3       29.99S VSB 1/2
BUFFALO        CLOUDY    30  28  92 NW6       30.00R FOG     WCI  24
MAPLE LAKE     FOG       31  31  99 NW5       30.00S VSB 1/2 WCI  26
HUTCHINSON     FOG       32  32 100 W6        30.00S VSB 1/4 WCI  26
$$
MNZ037-044-045-052-053-171700-
   East Central Minnesota

CITY           SKY/WX    TMP DP  RH WIND       PRES   REMARKS
PRINCETON      CLOUDY    28  27  93 CALM      29.99R FOG
MORA           PTSUNNY   21  16  79 CALM      30.00S
CAMBRIDGE      CLOUDY    28  19  69 NW5       29.97S WCI  23
RUSH CITY      CLOUDY    27  19  74 NW6       29.98S WCI  20
MOOSE LAKE     CLOUDY    19  18  93 CALM      29.95F FOG
HINCKLEY       CLOUDY    27  19  74 CALM      29.98S
CLOQUET        FOG       21  19  93 CALM      29.94F VSB<1/4
MCGREGOR       CLOUDY    10   7  85 CALM      29.96F
$$
MNZ071>073-080-081-089-090-097-098-171700-
   Southwest Minnesota

CITY           SKY/WX    TMP DP  RH WIND       PRES   REMARKS
MONTEVIDEO     CLOUDY    16  12  86 NW5       30.04R WCI   9
GRANITE FALLS  CLOUDY    20  16  83 W7        30.03S WCI  11
CANBY            N/A     17  12  79 CALM      30.02S
MARSHALL       CLOUDY    22  16  78 W9        30.02S WCI  12
REDWOOD FALLS  CLOUDY    22  17  81 W8        30.01S WCI  12
OLIVIA         CLOUDY    23  19  86 NW8       30.00S WCI  14
PIPESTONE      CLOUDY    16  12  86 NW3       30.00S
WINDOM         CLOUDY    25  25 100 W5        29.99S WCI  19
WORTHINGTON    FOG       29  28  96 W8        30.00S VSB 1/4 WCI  21
JACKSON        CLOUDY    27  27 100 NW5       29.99F FOG     WCI  21
TRACY          CLOUDY    26  22  87 NW3       30.01R
SLAYTON        FOG       25  25  99 W5        29.99S VSB 1/2 WCI  20
$$
MNZ065>067-074>077-082>085-091>093-171700-
   South Central Minnesota

CITY           SKY/WX    TMP DP  RH WIND       PRES   REMARKS
MANKATO        MOSUNNY   31  29  92 NW8       29.99R FOG     WCI  23
NEW ULM        CLOUDY    25  23  93 W8        30.00S FOG     WCI  16
ST JAMES       CLOUDY    25  25 100 W9        30.01S FOG     WCI  15
GLENCOE        CLOUDY    32  32 100 NW5       29.98R FOG     WCI  27
FARIBAULT        N/A     30  30 100 NW6       29.96S FOG     WCI  24
OWATONNA       FOG       30  28  93 NW6       29.96R VSB 1   WCI  24
WASECA         CLOUDY    32  30  93 NW7       29.97S FOG     WCI  26
ALBERT LEA     CLOUDY    30  30 100 NW6       29.95R WCI  24
$$
MNZ078>079-086>088-094>096-171700-
   Southeast Minnesota

CITY           SKY/WX    TMP DP  RH WIND       PRES   REMARKS
ROCHESTER      MIX PCPN  32  32 100 NW12      29.91R VSB 1/4 WCI  23
RED WING       CLOUDY    34  32  93 CALM      29.94R FOG
STANTON        CLOUDY    33  31  92 NW9       29.95R FOG     WCI  25
DODGE CENTER   FOG       32  32 100 CALM      29.92R VSB 1/4
WINONA         RAIN      34  34 100 NW6       29.93R WCI  29
AUSTIN         FOG       30  30 100 NW5       29.93R VSB 1/4 WCI  25
PRESTON        CLOUDY    32  31  96 N3        29.91R FOG
$$
ABBREVIATIONS USED IN REMARKS
   TC - TEMPERATURES IN CELSIUS
  WCI - WIND CHILL INDEX
   HX - HEAT INDEX
  VSB - VISIBILITY
$$




USA.gov is the U.S. government's official web portal to all federal, state and local government web resources and services.